Time,TemperatureF,DewpointF,PressureIn,WindDirection,WindDirectionDegrees,WindSpeedMPH,WindSpeedGustMPH,Humidity,HourlyPrecipIn,Conditions,Clouds,dailyrainin,SoftwareType,DateUTC
2013-05-23 00:01:00,61.9,59.2,29.72,SW,219,0.0,0.0,91,0.00,,---,0.00,VWS V14.01,2013-05-23 04:01:00,
2013-05-23 00:02:00,61.9,59.2,29.72,West,270,0.0,0.0,91,0.00,,---,0.00,VWS V14.01,2013-05-23 04:02:00,
2013-05-23 00:07:00,61.7,59.4,29.72,West,264,0.0,7.2,92,0.00,,---,0.00,VWS V14.01,2013-05-23 04:07:00,
2013-05-23 00:12:00,61.7,59.4,29.72,SSE,153,0.0,0.0,92,0.00,,---,0.00,VWS V14.01,2013-05-23 04:12:00,
2013-05-23 00:17:00,61.7,59.4,29.72,SSE,157,0.0,0.0,92,0.00,,---,0.00,VWS V14.01,2013-05-23 04:17:00,
2013-05-23 00:23:00,61.5,59.2,29.72,WSW,247,0.0,0.0,92,0.00,,---,0.00,VWS V14.01,2013-05-23 04:23:00,
2013-05-23 00:28:00,61.5,59.2,29.72,SE,127,4.5,4.5,92,0.00,,---,0.00,VWS V14.01,2013-05-23 04:28:00,
2013-05-23 00:33:00,61.5,59.2,29.72,ESE,120,0.0,0.0,92,0.00,,---,0.00,VWS V14.01,2013-05-23 04:33:00,
2013-05-23 00:38:00,61.3,59.0,29.72,SSW,213,6.3,6.3,92,0.00,,---,0.00,VWS V14.01,2013-05-23 04:38:00,
2013-05-23 00:43:00,61.3,59.0,29.72,SSW,204,0.0,0.0,92,0.00,,---,0.00,VWS V14.01,2013-05-23 04:43:00,
2013-05-23 00:48:00,61.3,59.0,29.72,SW,224,0.0,0.0,92,0.00,,---,0.00,VWS V14.01,2013-05-23 04:48:00,
2013-05-23 00:53:00,61.2,59.1,29.72,SW,227,0.0,0.0,93,0.00,,---,0.00,VWS V14.01,2013-05-23 04:53:00,
2013-05-23 00:58:00,61.2,59.1,29.72,NW,325,0.0,0.0,93,0.00,,---,0.00,VWS V14.01,2013-05-23 04:58:00,
2013-05-23 01:03:00,61.0,59.0,29.72,SSE,161,0.0,0.0,93,0.00,,---,0.00,VWS V14.01,2013-05-23 05:03:00,
2013-05-23 01:08:00,61.0,59.0,29.72,SSE,162,0.0,0.0,93,0.00,,---,0.00,VWS V14.01,2013-05-23 05:08:00,
2013-05-23 01:13:00,61.0,59.0,29.72,SSE,162,0.0,0.0,93,0.00,,---,0.00,VWS V14.01,2013-05-23 05:13:00,
2013-05-23 01:18:00,60.8,58.8,29.72,WSW,240,0.0,0.0,93,0.00,,---,0.00,VWS V14.01,2013-05-23 05:18:00,
2013-05-23 01:23:00,60.6,58.6,29.72,WSW,238,0.0,0.0,93,0.00,,---,0.00,VWS V14.01,2013-05-23 05:23:00,
2013-05-23 01:28:00,60.6,58.6,29.72,WSW,240,0.0,0.0,93,0.00,,---,0.00,VWS V14.01,2013-05-23 05:28:00,
2013-05-23 01:33:00,60.6,58.6,29.72,SW,235,5.4,5.4,93,0.00,,---,0.00,VWS V14.01,2013-05-23 05:33:00,
2013-05-23 01:38:00,60.6,58.9,29.72,SW,234,0.0,0.0,94,0.00,,---,0.00,VWS V14.01,2013-05-23 05:38:00,
2013-05-23 01:43:00,60.4,58.7,29.72,SW,234,0.0,0.0,94,0.00,,---,0.00,VWS V14.01,2013-05-23 05:43:00,
2013-05-23 01:48:00,60.4,58.7,29.72,SSE,154,0.0,0.0,94,0.00,,---,0.00,VWS V14.01,2013-05-23 05:48:00,
2013-05-23 01:53:00,60.4,58.7,29.72,ESE,123,0.0,5.4,94,0.00,,---,0.00,VWS V14.01,2013-05-23 05:53:00,
2013-05-23 01:58:00,60.4,58.7,29.72,South,185,0.0,0.0,94,0.00,,---,0.00,VWS V14.01,2013-05-23 05:58:00,
2013-05-23 02:03:00,60.4,58.7,29.72,South,177,0.0,0.0,94,0.00,,---,0.00,VWS V14.01,2013-05-23 06:03:00,
2013-05-23 02:08:00,60.4,58.7,29.72,SW,234,5.4,6.3,94,0.00,,---,0.00,VWS V14.01,2013-05-23 06:08:00,
2013-05-23 02:13:00,60.3,58.5,29.72,WSW,243,0.0,0.0,94,0.00,,---,0.00,VWS V14.01,2013-05-23 06:13:00,
2013-05-23 02:18:00,60.3,58.5,29.72,NW,311,0.0,0.0,94,0.00,,---,0.00,VWS V14.01,2013-05-23 06:18:00,
2013-05-23 02:23:00,60.1,58.3,29.72,SE,141,0.0,0.0,94,0.00,,---,0.00,VWS V14.01,2013-05-23 06:23:00,
2013-05-23 02:28:00,60.1,58.3,29.72,West,267,0.0,0.0,94,0.00,,---,0.00,VWS V14.01,2013-05-23 06:28:00,
2013-05-23 02:33:00,60.1,58.3,29.72,West,267,0.0,0.0,94,0.00,,---,0.00,VWS V14.01,2013-05-23 06:33:00,
2013-05-23 02:38:00,59.9,58.2,29.72,South,191,0.0,0.0,94,0.00,,---,0.00,VWS V14.01,2013-05-23 06:38:00,
2013-05-23 02:43:00,59.7,58.0,29.72,South,182,0.0,0.0,94,0.00,,---,0.00,VWS V14.01,2013-05-23 06:43:00,
2013-05-23 02:48:00,59.7,58.0,29.72,South,191,0.0,0.0,94,0.00,,---,0.00,VWS V14.01,2013-05-23 06:48:00,
2013-05-23 02:53:00,59.7,58.0,29.72,South,180,0.0,0.0,94,0.00,,---,0.00,VWS V14.01,2013-05-23 06:53:00,
2013-05-23 02:58:00,59.5,57.8,29.72,South,180,0.0,0.0,94,0.00,,---,0.00,VWS V14.01,2013-05-23 06:58:00,
2013-05-23 03:03:00,59.4,57.6,29.72,SSW,198,0.0,0.0,94,0.00,,---,0.00,VWS V14.01,2013-05-23 07:03:00,
2013-05-23 03:08:00,59.4,57.6,29.72,SSW,198,0.0,0.0,94,0.00,,---,0.00,VWS V14.01,2013-05-23 07:08:00,
2013-05-23 03:13:00,59.4,57.6,29.72,SSW,198,0.0,0.0,94,0.00,,---,0.00,VWS V14.01,2013-05-23 07:13:00,
2013-05-23 03:18:00,59.2,57.5,29.72,SSW,198,0.0,0.0,94,0.00,,---,0.00,VWS V14.01,2013-05-23 07:18:00,
2013-05-23 03:23:00,59.2,57.5,29.72,SSW,200,0.0,0.0,94,0.00,,---,0.00,VWS V14.01,2013-05-23 07:23:00,
2013-05-23 03:28:00,59.0,57.3,29.72,SSW,200,0.0,0.0,94,0.00,,---,0.00,VWS V14.01,2013-05-23 07:28:00,
2013-05-23 03:33:00,59.0,57.3,29.72,SSW,211,0.0,0.0,94,0.00,,---,0.00,VWS V14.01,2013-05-23 07:33:00,
2013-05-23 03:38:00,58.8,57.4,29.72,SSW,212,0.0,0.0,95,0.00,,---,0.00,VWS V14.01,2013-05-23 07:38:00,
2013-05-23 03:43:00,58.8,57.4,29.72,SSW,212,0.0,0.0,95,0.00,,---,0.00,VWS V14.01,2013-05-23 07:43:00,
2013-05-23 03:48:00,58.8,57.4,29.72,SSW,212,0.0,0.0,95,0.00,,---,0.00,VWS V14.01,2013-05-23 07:48:00,
2013-05-23 03:54:00,58.8,57.4,29.72,WNW,288,0.0,0.0,95,0.00,,---,0.00,VWS V14.01,2013-05-23 07:54:00,
2013-05-23 03:59:00,58.6,57.2,29.72,WNW,287,0.0,0.0,95,0.00,,---,0.00,VWS V14.01,2013-05-23 07:59:00,
2013-05-23 04:04:00,58.6,57.2,29.72,WNW,287,0.0,0.0,95,0.00,,---,0.00,VWS V14.01,2013-05-23 08:04:00,
2013-05-23 04:09:00,58.6,57.2,29.72,WNW,286,0.0,0.0,95,0.00,,---,0.00,VWS V14.01,2013-05-23 08:09:00,
2013-05-23 04:14:00,58.5,57.0,29.72,WNW,286,0.0,0.0,95,0.00,,---,0.00,VWS V14.01,2013-05-23 08:14:00,
2013-05-23 04:19:00,58.5,57.0,29.72,WNW,286,0.0,0.0,95,0.00,,---,0.00,VWS V14.01,2013-05-23 08:19:00,
2013-05-23 04:24:00,58.5,57.0,29.72,West,281,0.0,0.0,95,0.00,,---,0.00,VWS V14.01,2013-05-23 08:24:00,
2013-05-23 04:29:00,58.5,57.0,29.72,West,281,0.0,0.0,95,0.00,,---,0.00,VWS V14.01,2013-05-23 08:29:00,
2013-05-23 04:34:00,58.5,57.0,29.72,West,281,0.0,0.0,95,0.00,,---,0.00,VWS V14.01,2013-05-23 08:34:00,
2013-05-23 04:39:00,58.6,57.2,29.72,West,281,0.0,0.0,95,0.00,,---,0.00,VWS V14.01,2013-05-23 08:39:00,
2013-05-23 04:44:00,58.6,57.2,29.72,West,281,0.0,0.0,95,0.00,,---,0.00,VWS V14.01,2013-05-23 08:44:00,
2013-05-23 04:49:00,58.6,57.2,29.72,West,281,0.0,0.0,95,0.00,,---,0.00,VWS V14.01,2013-05-23 08:49:00,
2013-05-23 04:54:00,58.6,57.2,29.72,West,281,0.0,0.0,95,0.00,,---,0.00,VWS V14.01,2013-05-23 08:54:00,
2013-05-23 05:00:00,58.6,57.2,29.72,West,281,0.0,0.0,95,0.00,,---,0.00,VWS V14.01,2013-05-23 09:00:00,
2013-05-23 05:05:00,58.5,57.0,29.72,West,281,0.0,0.0,95,0.00,,---,0.00,VWS V14.01,2013-05-23 09:05:00,
2013-05-23 05:10:00,58.5,57.0,29.75,West,281,0.0,0.0,95,0.00,,---,0.00,VWS V14.01,2013-05-23 09:10:00,
2013-05-23 05:15:00,58.5,57.3,29.75,West,281,0.0,0.0,96,0.00,,---,0.00,VWS V14.01,2013-05-23 09:15:00,
2013-05-23 05:20:00,58.5,57.3,29.75,West,281,0.0,0.0,96,0.00,,---,0.00,VWS V14.01,2013-05-23 09:20:00,
2013-05-23 05:25:00,58.5,57.3,29.75,West,281,0.0,0.0,96,0.00,,---,0.00,VWS V14.01,2013-05-23 09:25:00,
2013-05-23 05:30:00,58.5,57.3,29.75,West,281,0.0,0.0,96,0.00,,---,0.00,VWS V14.01,2013-05-23 09:30:00,
2013-05-23 05:35:00,58.5,57.3,29.75,West,281,0.0,0.0,96,0.00,,---,0.00,VWS V14.01,2013-05-23 09:35:00,
2013-05-23 05:40:00,58.5,57.3,29.75,West,281,0.0,0.0,96,0.00,,---,0.00,VWS V14.01,2013-05-23 09:40:00,
2013-05-23 05:45:00,58.5,57.3,29.75,West,281,0.0,0.0,96,0.00,,---,0.00,VWS V14.01,2013-05-23 09:45:00,
2013-05-23 05:50:00,58.5,57.3,29.75,West,281,0.0,0.0,96,0.00,,---,0.00,VWS V14.01,2013-05-23 09:50:00,
2013-05-23 05:55:00,58.5,57.3,29.75,West,281,0.0,0.0,96,0.00,,---,0.00,VWS V14.01,2013-05-23 09:55:00,
2013-05-23 06:00:00,58.6,57.5,29.75,West,281,0.0,0.0,96,0.00,,---,0.00,VWS V14.01,2013-05-23 10:00:00,
2013-05-23 06:05:00,58.6,57.5,29.75,West,280,0.0,0.0,96,0.00,,---,0.00,VWS V14.01,2013-05-23 10:05:00,
2013-05-23 06:10:00,58.8,57.7,29.75,West,280,0.0,0.0,96,0.00,,---,0.00,VWS V14.01,2013-05-23 10:10:00,
2013-05-23 06:15:00,59.0,57.9,29.75,West,280,0.0,0.0,96,0.00,,---,0.00,VWS V14.01,2013-05-23 10:15:00,
2013-05-23 06:20:00,59.2,58.0,29.75,West,281,0.0,0.0,96,0.00,,---,0.00,VWS V14.01,2013-05-23 10:20:00,
2013-05-23 06:26:00,59.2,58.0,29.75,West,281,0.0,0.0,96,0.00,,---,0.00,VWS V14.01,2013-05-23 10:26:00,
2013-05-23 06:31:00,59.4,58.2,29.75,West,280,0.0,0.0,96,0.00,,---,0.00,VWS V14.01,2013-05-23 10:31:00,
2013-05-23 06:36:00,59.4,58.2,29.75,West,280,0.0,0.0,96,0.00,,---,0.00,VWS V14.01,2013-05-23 10:36:00,
2013-05-23 06:41:00,59.4,58.2,29.75,West,280,0.0,0.0,96,0.00,,---,0.00,VWS V14.01,2013-05-23 10:41:00,
2013-05-23 06:46:00,59.4,58.2,29.75,West,281,0.0,0.0,96,0.00,,---,0.00,VWS V14.01,2013-05-23 10:46:00,
2013-05-23 06:51:00,59.5,58.4,29.75,West,280,0.0,0.0,96,0.00,,---,0.00,VWS V14.01,2013-05-23 10:51:00,
2013-05-23 06:56:00,59.5,58.4,29.75,West,281,0.0,0.0,96,0.00,,---,0.00,VWS V14.01,2013-05-23 10:56:00,
2013-05-23 07:01:00,59.5,58.4,29.75,West,281,0.0,0.0,96,0.00,,---,0.00,VWS V14.01,2013-05-23 11:01:00,
2013-05-23 07:06:00,59.7,58.6,29.75,West,281,0.0,0.0,96,0.00,,---,0.00,VWS V14.01,2013-05-23 11:06:00,
2013-05-23 07:11:00,59.7,58.6,29.75,West,280,0.0,0.0,96,0.00,,---,0.00,VWS V14.01,2013-05-23 11:11:00,
2013-05-23 07:16:00,59.7,58.6,29.75,West,280,0.0,0.0,96,0.00,,---,0.00,VWS V14.01,2013-05-23 11:16:00,
2013-05-23 07:22:00,59.7,58.6,29.75,West,280,0.0,0.0,96,0.00,,---,0.00,VWS V14.01,2013-05-23 11:22:00,
2013-05-23 07:27:00,59.7,58.6,29.75,West,280,0.0,0.0,96,0.00,,---,0.00,VWS V14.01,2013-05-23 11:27:00,
2013-05-23 07:32:00,59.7,58.6,29.75,West,279,0.0,0.0,96,0.00,,---,0.00,VWS V14.01,2013-05-23 11:32:00,
2013-05-23 07:37:00,59.7,58.6,29.75,West,279,0.0,0.0,96,0.00,,---,0.00,VWS V14.01,2013-05-23 11:37:00,
2013-05-23 07:42:00,59.7,58.6,29.75,West,279,0.0,0.0,96,0.00,,---,0.00,VWS V14.01,2013-05-23 11:42:00,
2013-05-23 07:47:00,59.7,58.6,29.75,West,279,0.0,0.0,96,0.00,,---,0.00,VWS V14.01,2013-05-23 11:47:00,
2013-05-23 07:52:00,59.7,58.6,29.75,West,279,0.0,0.0,96,0.00,,---,0.00,VWS V14.01,2013-05-23 11:52:00,
2013-05-23 07:57:00,59.7,58.6,29.75,West,279,0.0,0.0,96,0.00,,---,0.00,VWS V14.01,2013-05-23 11:57:00,
2013-05-23 08:02:00,59.9,59.0,29.75,West,279,0.0,0.0,97,0.00,,---,0.00,VWS V14.01,2013-05-23 12:02:00,
2013-05-23 08:07:00,59.9,59.0,29.75,West,279,0.0,0.0,97,0.00,,---,0.00,VWS V14.01,2013-05-23 12:07:00,
2013-05-23 08:12:00,59.9,59.0,29.75,West,279,0.0,0.0,97,0.00,,---,0.00,VWS V14.01,2013-05-23 12:12:00,
2013-05-23 08:17:00,59.9,59.0,29.75,West,277,0.0,0.0,97,0.00,,---,0.00,VWS V14.01,2013-05-23 12:17:00,
2013-05-23 08:22:00,59.9,59.0,29.75,West,274,0.0,0.0,97,0.00,,---,0.00,VWS V14.01,2013-05-23 12:22:00,
2013-05-23 08:27:00,59.9,59.0,29.78,West,274,0.0,0.0,97,0.00,,---,0.00,VWS V14.01,2013-05-23 12:27:00,
2013-05-23 08:32:00,59.9,59.0,29.78,WNW,301,0.0,0.0,97,0.00,,---,0.00,VWS V14.01,2013-05-23 12:32:00,
2013-05-23 08:37:00,59.9,59.0,29.78,WNW,301,0.0,0.0,97,0.00,,---,0.00,VWS V14.01,2013-05-23 12:37:00,
2013-05-23 08:43:00,60.1,59.2,29.75,WNW,300,0.0,0.0,97,0.00,,---,0.00,VWS V14.01,2013-05-23 12:43:00,
2013-05-23 08:48:00,60.1,59.2,29.75,West,271,0.0,0.0,97,0.00,,---,0.00,VWS V14.01,2013-05-23 12:48:00,
2013-05-23 08:53:00,60.3,59.4,29.75,WSW,257,0.0,0.0,97,0.00,,---,0.00,VWS V14.01,2013-05-23 12:53:00,
2013-05-23 08:58:00,60.4,59.6,29.78,West,272,0.0,0.0,97,0.00,,---,0.00,VWS V14.01,2013-05-23 12:58:00,
2013-05-23 09:03:00,60.6,59.8,29.78,SSW,195,6.3,6.3,97,0.00,,---,0.00,VWS V14.01,2013-05-23 13:03:00,
2013-05-23 09:08:00,60.6,59.8,29.78,SW,235,0.0,7.2,97,0.00,,---,0.00,VWS V14.01,2013-05-23 13:08:00,
2013-05-23 09:13:00,60.8,60.0,29.78,WNW,289,0.0,0.0,97,0.00,,---,0.00,VWS V14.01,2013-05-23 13:13:00,
2013-05-23 09:18:00,60.8,60.0,29.78,WNW,285,0.0,0.0,97,0.00,,---,0.00,VWS V14.01,2013-05-23 13:18:00,
2013-05-23 09:23:00,60.8,60.0,29.78,NW,319,0.0,0.0,97,0.00,,---,0.00,VWS V14.01,2013-05-23 13:23:00,
2013-05-23 09:28:00,61.0,60.1,29.78,SW,219,0.0,0.0,97,0.00,,---,0.00,VWS V14.01,2013-05-23 13:28:00,
2013-05-23 09:33:00,61.0,60.1,29.78,SW,227,0.0,0.0,97,0.00,,---,0.00,VWS V14.01,2013-05-23 13:33:00,
2013-05-23 09:38:00,61.0,60.1,29.78,NNW,329,0.0,0.0,97,0.00,,---,0.00,VWS V14.01,2013-05-23 13:38:00,
2013-05-23 09:43:00,61.0,60.1,29.78,WNW,285,0.0,0.0,97,0.00,,---,0.00,VWS V14.01,2013-05-23 13:43:00,
2013-05-23 09:48:00,61.2,60.3,29.78,NNW,333,0.0,0.0,97,0.00,,---,0.00,VWS V14.01,2013-05-23 13:48:00,
2013-05-23 09:53:00,61.3,60.5,29.78,SSE,162,0.0,0.0,97,0.00,,---,0.00,VWS V14.01,2013-05-23 13:53:00,
2013-05-23 09:58:00,61.3,60.5,29.78,SW,224,0.0,0.0,97,0.00,,---,0.00,VWS V14.01,2013-05-23 13:58:00,
2013-05-23 10:04:00,61.2,60.3,29.78,NW,326,0.0,0.0,97,0.00,,---,0.00,VWS V14.01,2013-05-23 14:04:00,
2013-05-23 10:09:00,61.3,60.5,29.78,WNW,292,0.0,0.0,97,0.00,,---,0.00,VWS V14.01,2013-05-23 14:09:00,
2013-05-23 10:14:00,61.2,60.3,29.78,West,261,0.0,0.0,97,0.00,,---,0.00,VWS V14.01,2013-05-23 14:14:00,
2013-05-23 10:19:00,61.2,60.3,29.78,WSW,241,0.0,0.0,97,0.00,,---,0.00,VWS V14.01,2013-05-23 14:19:00,
2013-05-23 10:24:00,61.0,60.1,29.81,SW,222,0.0,0.0,97,0.00,,---,0.00,VWS V14.01,2013-05-23 14:24:00,
2013-05-23 10:29:00,61.2,60.3,29.81,North,351,0.0,0.0,97,0.00,,---,0.00,VWS V14.01,2013-05-23 14:29:00,
2013-05-23 10:34:00,61.2,60.3,29.81,WNW,303,0.0,0.0,97,0.00,,---,0.00,VWS V14.01,2013-05-23 14:34:00,
2013-05-23 10:39:00,61.3,60.5,29.81,NW,308,0.0,0.0,97,0.00,,---,0.00,VWS V14.01,2013-05-23 14:39:00,
2013-05-23 10:44:00,61.5,60.7,29.81,NNW,333,0.0,4.5,97,0.00,,---,0.00,VWS V14.01,2013-05-23 14:44:00,
2013-05-23 10:49:00,61.7,60.8,29.81,NNW,343,0.0,4.5,97,0.00,,---,0.00,VWS V14.01,2013-05-23 14:49:00,
2013-05-23 10:54:00,61.9,60.7,29.81,NW,305,0.0,0.0,96,0.00,,---,0.00,VWS V14.01,2013-05-23 14:54:00,
2013-05-23 10:59:00,61.9,60.7,29.81,WNW,302,0.0,0.0,96,0.00,,---,0.00,VWS V14.01,2013-05-23 14:59:00,
2013-05-23 11:04:00,62.1,60.9,29.81,WNW,297,0.0,0.0,96,0.00,,---,0.00,VWS V14.01,2013-05-23 15:04:00,
2013-05-23 11:09:00,62.2,61.1,29.81,WNW,286,0.0,0.0,96,0.00,,---,0.00,VWS V14.01,2013-05-23 15:09:00,
2013-05-23 11:14:00,62.2,61.1,29.81,NNW,328,0.0,0.0,96,0.00,,---,0.00,VWS V14.01,2013-05-23 15:14:00,
2013-05-23 11:19:00,62.2,61.1,29.81,NW,306,7.2,7.2,96,0.00,,---,0.00,VWS V14.01,2013-05-23 15:19:00,
2013-05-23 11:24:00,62.1,60.6,29.81,NNW,339,4.5,5.4,95,0.00,,---,0.00,VWS V14.01,2013-05-23 15:24:00,
2013-05-23 11:29:00,61.7,60.0,29.81,NW,325,0.0,4.5,94,0.00,,---,0.00,VWS V14.01,2013-05-23 15:29:00,
2013-05-23 11:35:00,60.8,59.1,29.81,North,358,8.1,10.7,94,0.00,,---,0.00,VWS V14.01,2013-05-23 15:35:00,
2013-05-23 11:40:00,60.3,58.5,29.81,NNW,343,5.4,5.4,94,0.00,,---,0.00,VWS V14.01,2013-05-23 15:40:00,
2013-05-23 11:45:00,60.1,58.3,29.81,North,1,17.4,19.2,94,0.00,,---,0.00,VWS V14.01,2013-05-23 15:45:00,
2013-05-23 11:55:00,59.2,57.2,29.81,NNE,14,9.8,9.8,93,0.00,,---,0.00,VWS V14.01,2013-05-23 15:55:00,
2013-05-23 12:00:00,59.0,56.7,29.81,North,5,14.3,14.3,92,0.00,,---,0.00,VWS V14.01,2013-05-23 16:00:00,
2013-05-23 12:05:00,58.6,56.3,29.81,East,100,10.7,15.2,92,0.00,,---,0.00,VWS V14.01,2013-05-23 16:05:00,
2013-05-23 12:10:00,58.1,55.8,29.81,NW,314,11.6,17.4,92,0.00,,---,0.00,VWS V14.01,2013-05-23 16:10:00,
2013-05-23 12:21:00,56.7,53.2,29.81,NNW,340,15.2,15.2,88,0.00,,---,0.00,VWS V14.01,2013-05-23 16:21:00,
2013-05-23 12:26:00,56.3,52.8,29.84,NNE,22,7.2,8.9,88,0.00,,---,0.00,VWS V14.01,2013-05-23 16:26:00,
2013-05-23 12:31:00,55.8,52.3,29.84,North,10,0.0,0.0,88,0.00,,---,0.00,VWS V14.01,2013-05-23 16:31:00,
2013-05-23 12:36:00,55.4,51.9,29.84,North,6,21.0,24.6,88,0.00,,---,0.00,VWS V14.01,2013-05-23 16:36:00,
2013-05-23 12:42:00,54.7,51.2,29.84,North,350,11.6,11.6,88,0.00,,---,0.00,VWS V14.01,2013-05-23 16:42:00,
2013-05-23 12:47:00,53.8,50.0,29.84,West,268,20.1,20.1,87,0.00,,---,0.00,VWS V14.01,2013-05-23 16:47:00,
2013-05-23 12:52:00,53.2,49.8,29.84,SE,135,7.2,7.2,88,0.00,,---,0.00,VWS V14.01,2013-05-23 16:52:00,
2013-05-23 12:57:00,52.5,48.8,29.84,ESE,108,6.3,16.1,87,0.00,,---,0.00,VWS V14.01,2013-05-23 16:57:00,
2013-05-23 13:02:00,51.8,48.1,29.84,North,349,6.3,6.3,87,0.00,,---,0.00,VWS V14.01,2013-05-23 17:02:00,
2013-05-23 13:07:00,51.3,47.5,29.84,NNW,342,0.0,4.5,87,0.00,,---,0.00,VWS V14.01,2013-05-23 17:07:00,
2013-05-23 13:12:00,51.1,47.7,29.84,NE,43,5.4,12.5,88,0.00,,---,0.00,VWS V14.01,2013-05-23 17:12:00,
2013-05-23 13:17:00,50.9,47.5,29.84,NNE,18,9.8,14.3,88,0.00,,---,0.00,VWS V14.01,2013-05-23 17:17:00,
2013-05-23 13:22:00,50.7,47.3,29.84,NNE,24,5.4,7.2,88,0.00,,---,0.00,VWS V14.01,2013-05-23 17:22:00,
2013-05-23 13:27:00,50.5,47.1,29.87,ENE,59,8.9,8.9,88,0.00,,---,0.00,VWS V14.01,2013-05-23 17:27:00,
2013-05-23 13:32:00,50.2,46.8,29.87,NNE,14,22.8,22.8,88,0.00,,---,0.00,VWS V14.01,2013-05-23 17:32:00,
2013-05-23 13:37:00,50.2,46.8,29.87,NNE,14,0.0,12.5,88,0.00,,---,0.00,VWS V14.01,2013-05-23 17:37:00,
2013-05-23 13:43:00,49.8,46.4,29.87,NW,320,11.6,12.5,88,0.00,,---,0.00,VWS V14.01,2013-05-23 17:43:00,
2013-05-23 13:48:00,49.6,46.2,29.87,ENE,71,0.0,6.3,88,0.00,,---,0.00,VWS V14.01,2013-05-23 17:48:00,
2013-05-23 13:53:00,49.3,45.6,29.87,NNW,337,8.1,11.6,87,0.00,,---,0.00,VWS V14.01,2013-05-23 17:53:00,
2013-05-23 13:58:00,49.1,45.1,29.87,NE,44,11.6,11.6,86,0.00,,---,0.00,VWS V14.01,2013-05-23 17:58:00,
2013-05-23 14:03:00,48.9,44.9,29.87,NW,318,0.0,4.5,86,0.00,,---,0.00,VWS V14.01,2013-05-23 18:03:00,
2013-05-23 14:08:00,48.7,44.8,29.87,NE,38,11.6,12.5,86,0.00,,---,0.00,VWS V14.01,2013-05-23 18:08:00,
2013-05-23 14:13:00,48.4,44.4,29.87,WSW,246,10.7,21.0,86,0.00,,---,0.00,VWS V14.01,2013-05-23 18:13:00,
2013-05-23 14:18:00,48.2,44.2,29.87,ENE,63,0.0,10.7,86,0.00,,---,0.00,VWS V14.01,2013-05-23 18:18:00,
2013-05-23 14:23:00,48.0,44.0,29.90,East,86,12.5,12.5,86,0.00,,---,0.00,VWS V14.01,2013-05-23 18:23:00,
2013-05-23 14:28:00,48.0,44.3,29.90,NNE,14,7.2,12.5,87,0.00,,---,0.00,VWS V14.01,2013-05-23 18:28:00,
2013-05-23 14:33:00,48.0,44.3,29.90,ESE,120,4.5,17.4,87,0.00,,---,0.00,VWS V14.01,2013-05-23 18:33:00,
2013-05-23 14:38:00,47.8,44.2,29.90,NNE,21,24.6,24.6,87,0.00,,---,0.00,VWS V14.01,2013-05-23 18:38:00,
2013-05-23 14:44:00,47.7,44.0,29.90,North,352,0.0,6.3,87,0.00,,---,0.00,VWS V14.01,2013-05-23 18:44:00,
2013-05-23 14:49:00,47.5,43.8,29.90,North,359,0.0,7.2,87,0.00,,---,0.00,VWS V14.01,2013-05-23 18:49:00,
2013-05-23 14:54:00,47.3,43.6,29.90,North,356,7.2,12.5,87,0.04,,---,0.04,VWS V14.01,2013-05-23 18:54:00,
2013-05-23 14:59:00,47.1,43.8,29.90,NNE,14,0.0,0.0,88,0.04,,---,0.04,VWS V14.01,2013-05-23 18:59:00,
2013-05-23 15:04:00,47.1,43.8,29.90,NNW,327,10.7,16.1,88,0.04,,---,0.04,VWS V14.01,2013-05-23 19:04:00,
2013-05-23 15:09:00,47.1,43.8,29.93,NNE,28,4.5,10.7,88,0.04,,---,0.04,VWS V14.01,2013-05-23 19:09:00,
2013-05-23 15:14:00,47.1,44.0,29.93,North,5,0.0,21.9,89,0.04,,---,0.04,VWS V14.01,2013-05-23 19:14:00,
2013-05-23 15:19:00,46.9,43.9,29.93,NNW,345,9.8,9.8,89,0.04,,---,0.04,VWS V14.01,2013-05-23 19:19:00,
2013-05-23 15:24:00,46.6,43.5,29.93,NW,324,16.1,16.6,89,0.04,,---,0.04,VWS V14.01,2013-05-23 19:24:00,
2013-05-23 15:29:00,46.6,43.5,29.93,NNE,21,11.6,11.6,89,0.04,,---,0.04,VWS V14.01,2013-05-23 19:29:00,
2013-05-23 15:34:00,46.4,43.3,29.93,North,351,15.2,20.1,89,0.04,,---,0.04,VWS V14.01,2013-05-23 19:34:00,
2013-05-23 15:40:00,46.2,43.5,29.93,NW,305,5.4,5.4,90,0.04,,---,0.04,VWS V14.01,2013-05-23 19:40:00,
2013-05-23 15:45:00,46.2,43.5,29.93,WNW,303,11.6,11.6,90,0.04,,---,0.04,VWS V14.01,2013-05-23 19:45:00,
2013-05-23 15:50:00,46.0,43.6,29.93,NE,45,8.1,8.1,91,0.04,,---,0.04,VWS V14.01,2013-05-23 19:50:00,
2013-05-23 15:55:00,45.7,42.9,29.93,North,7,6.3,16.1,90,0.00,,---,0.04,VWS V14.01,2013-05-23 19:55:00,
2013-05-23 16:00:00,45.3,42.6,29.93,NNE,14,7.2,20.1,90,0.00,,---,0.04,VWS V14.01,2013-05-23 20:00:00,
2013-05-23 16:05:00,45.3,42.8,29.93,NNW,330,10.7,15.2,91,0.00,,---,0.04,VWS V14.01,2013-05-23 20:05:00,
2013-05-23 16:10:00,45.3,42.8,29.93,NW,311,9.8,17.4,91,0.04,,---,0.08,VWS V14.01,2013-05-23 20:10:00,
2013-05-23 16:15:00,45.3,43.1,29.93,North,11,7.2,14.3,92,0.04,,---,0.08,VWS V14.01,2013-05-23 20:15:00,
2013-05-23 16:20:00,45.1,43.0,29.93,NE,48,15.2,17.4,92,0.04,,---,0.08,VWS V14.01,2013-05-23 20:20:00,
2013-05-23 16:25:00,44.8,42.6,29.96,WNW,284,18.3,22.8,92,0.04,,---,0.08,VWS V14.01,2013-05-23 20:25:00,
2013-05-23 16:30:00,44.8,42.6,29.96,NW,326,6.3,18.3,92,0.04,,---,0.08,VWS V14.01,2013-05-23 20:30:00,
2013-05-23 16:36:00,45.0,42.8,29.96,NNE,18,8.1,8.1,92,0.04,,---,0.08,VWS V14.01,2013-05-23 20:36:00,
2013-05-23 16:41:00,44.8,42.6,29.96,NNE,18,17.4,21.9,92,0.04,,---,0.08,VWS V14.01,2013-05-23 20:41:00,
2013-05-23 16:46:00,44.8,42.6,29.96,ENE,62,12.5,20.1,92,0.04,,---,0.08,VWS V14.01,2013-05-23 20:46:00,
2013-05-23 16:51:00,44.6,42.7,29.96,NNW,336,12.5,12.5,93,0.04,,---,0.08,VWS V14.01,2013-05-23 20:51:00,
2013-05-23 16:56:00,44.6,42.7,29.96,NNW,328,12.5,12.5,93,0.04,,---,0.08,VWS V14.01,2013-05-23 20:56:00,
2013-05-23 17:01:00,44.4,42.5,29.96,NNW,342,11.6,14.3,93,0.04,,---,0.08,VWS V14.01,2013-05-23 21:01:00,
2013-05-23 17:06:00,44.4,42.5,29.96,NNE,14,0.0,15.2,93,0.04,,---,0.08,VWS V14.01,2013-05-23 21:06:00,
2013-05-23 17:11:00,44.2,42.3,29.96,North,353,6.3,6.3,93,0.00,,---,0.08,VWS V14.01,2013-05-23 21:11:00,
2013-05-23 17:16:00,44.2,42.3,29.96,NNW,334,16.6,16.6,93,0.00,,---,0.08,VWS V14.01,2013-05-23 21:16:00,
2013-05-23 17:21:00,44.1,42.2,29.96,NNW,331,12.5,16.6,93,0.00,,---,0.08,VWS V14.01,2013-05-23 21:21:00,
2013-05-23 17:26:00,44.1,42.5,29.99,WNW,299,7.2,12.5,94,0.00,,---,0.08,VWS V14.01,2013-05-23 21:26:00,
2013-05-23 17:31:00,44.1,42.5,29.99,North,350,10.7,10.7,94,0.00,,---,0.08,VWS V14.01,2013-05-23 21:31:00,
2013-05-23 17:37:00,44.1,42.5,29.99,NNW,343,6.3,6.3,94,0.00,,---,0.08,VWS V14.01,2013-05-23 21:37:00,
2013-05-23 17:42:00,44.1,42.5,29.99,North,4,8.1,20.1,94,0.00,,---,0.08,VWS V14.01,2013-05-23 21:42:00,
2013-05-23 17:47:00,44.1,42.5,29.99,NW,311,4.5,16.1,94,0.00,,---,0.08,VWS V14.01,2013-05-23 21:47:00,
2013-05-23 17:52:00,43.7,42.1,29.99,NNW,348,0.0,4.5,94,0.00,,---,0.08,VWS V14.01,2013-05-23 21:52:00,
2013-05-23 17:57:00,43.7,41.8,29.99,North,6,4.5,12.5,93,0.00,,---,0.08,VWS V14.01,2013-05-23 21:57:00,
2013-05-23 18:02:00,43.5,41.6,29.99,NNE,30,6.3,12.5,93,0.04,,---,0.12,VWS V14.01,2013-05-23 22:02:00,
2013-05-23 18:07:00,43.5,41.9,29.99,North,359,10.7,12.5,94,0.04,,---,0.12,VWS V14.01,2013-05-23 22:07:00,
2013-05-23 18:12:00,43.5,41.9,29.99,NE,47,6.3,15.2,94,0.04,,---,0.12,VWS V14.01,2013-05-23 22:12:00,
2013-05-23 18:17:00,43.5,41.9,29.99,North,11,14.3,14.3,94,0.04,,---,0.12,VWS V14.01,2013-05-23 22:17:00,
2013-05-23 18:22:00,43.5,41.9,29.99,North,4,11.6,15.2,94,0.04,,---,0.12,VWS V14.01,2013-05-23 22:22:00,
2013-05-23 18:28:00,43.5,41.9,30.02,NW,316,0.0,6.3,94,0.04,,---,0.12,VWS V14.01,2013-05-23 22:28:00,
2013-05-23 18:33:00,43.5,41.9,30.02,NNE,28,8.1,8.1,94,0.04,,---,0.12,VWS V14.01,2013-05-23 22:33:00,
2013-05-23 18:38:00,43.5,41.9,30.02,WNW,300,11.6,11.6,94,0.04,,---,0.12,VWS V14.01,2013-05-23 22:38:00,
2013-05-23 18:43:00,43.3,41.7,30.02,NW,306,17.4,17.4,94,0.04,,---,0.12,VWS V14.01,2013-05-23 22:43:00,
2013-05-23 18:48:00,43.2,41.5,30.02,North,356,7.2,19.2,94,0.04,,---,0.12,VWS V14.01,2013-05-23 22:48:00,
2013-05-23 18:53:00,43.0,41.4,30.02,North,359,16.1,16.1,94,0.04,,---,0.12,VWS V14.01,2013-05-23 22:53:00,
2013-05-23 18:58:00,43.0,41.4,30.02,North,11,4.5,4.5,94,0.04,,---,0.12,VWS V14.01,2013-05-23 22:58:00,
2013-05-23 19:03:00,43.0,41.4,30.02,NNW,345,5.4,7.2,94,0.00,,---,0.12,VWS V14.01,2013-05-23 23:03:00,
2013-05-23 19:08:00,43.2,41.5,30.02,NNW,347,7.2,7.2,94,0.00,,---,0.12,VWS V14.01,2013-05-23 23:08:00,
2013-05-23 19:13:00,43.2,41.5,30.02,NW,311,8.1,8.1,94,0.00,,---,0.12,VWS V14.01,2013-05-23 23:13:00,
2013-05-23 19:18:00,43.2,41.5,30.02,NNW,329,0.0,6.3,94,0.00,,---,0.12,VWS V14.01,2013-05-23 23:18:00,
2013-05-23 19:23:00,43.2,41.5,30.05,NNW,347,10.7,12.5,94,0.00,,---,0.12,VWS V14.01,2013-05-23 23:23:00,
2013-05-23 19:28:00,43.0,41.4,30.05,NNE,22,16.1,21.0,94,0.00,,---,0.12,VWS V14.01,2013-05-23 23:28:00,
2013-05-23 19:33:00,42.8,41.2,30.05,NNW,344,7.2,16.1,94,0.00,,---,0.12,VWS V14.01,2013-05-23 23:33:00,
2013-05-23 19:39:00,42.8,41.2,30.05,NNE,25,0.0,20.1,94,0.00,,---,0.12,VWS V14.01,2013-05-23 23:39:00,
2013-05-23 19:44:00,42.4,40.8,30.05,North,350,15.2,18.3,94,0.00,,---,0.12,VWS V14.01,2013-05-23 23:44:00,
2013-05-23 19:49:00,42.4,40.8,30.05,NW,317,7.2,7.2,94,0.00,,---,0.12,VWS V14.01,2013-05-23 23:49:00,
2013-05-23 19:54:00,42.3,40.7,30.05,North,6,14.3,14.3,94,0.00,,---,0.12,VWS V14.01,2013-05-23 23:54:00,
2013-05-23 19:59:00,42.1,40.5,30.05,East,93,11.6,11.6,94,0.00,,---,0.12,VWS V14.01,2013-05-23 23:59:00,
2013-05-23 20:04:00,42.1,40.5,30.05,NNE,14,12.5,30.9,94,0.00,,---,0.12,VWS V14.01,2013-05-24 00:04:00,
2013-05-23 20:09:00,42.1,40.5,30.08,NNW,332,8.1,8.1,94,0.00,,---,0.12,VWS V14.01,2013-05-24 00:09:00,
2013-05-23 20:14:00,41.9,40.3,30.08,NNE,21,16.6,17.4,94,0.00,,---,0.12,VWS V14.01,2013-05-24 00:14:00,
2013-05-23 20:19:00,41.9,40.3,30.08,NE,53,21.0,21.0,94,0.00,,---,0.12,VWS V14.01,2013-05-24 00:19:00,
2013-05-23 20:24:00,41.9,40.0,30.08,North,360,7.2,15.2,93,0.00,,---,0.12,VWS V14.01,2013-05-24 00:24:00,
2013-05-23 20:29:00,41.9,40.0,30.08,NNW,329,9.8,9.8,93,0.00,,---,0.12,VWS V14.01,2013-05-24 00:29:00,
2013-05-23 20:34:00,41.9,40.0,30.08,North,10,10.7,23.7,93,0.00,,---,0.12,VWS V14.01,2013-05-24 00:34:00,
2013-05-23 20:39:00,41.9,40.0,30.08,NW,319,11.6,24.6,93,0.00,,---,0.12,VWS V14.01,2013-05-24 00:39:00,
2013-05-23 20:45:00,42.1,40.2,30.08,WNW,301,5.4,5.4,93,0.00,,---,0.12,VWS V14.01,2013-05-24 00:45:00,
2013-05-23 20:50:00,42.1,40.2,30.08,NW,325,6.3,6.3,93,0.00,,---,0.12,VWS V14.01,2013-05-24 00:50:00,
2013-05-23 20:55:00,42.1,40.2,30.08,WNW,300,0.0,0.0,93,0.00,,---,0.12,VWS V14.01,2013-05-24 00:55:00,
2013-05-23 21:00:00,42.3,40.4,30.08,North,349,0.0,0.0,93,0.00,,---,0.12,VWS V14.01,2013-05-24 01:00:00,
2013-05-23 21:05:00,42.3,40.4,30.08,North,355,5.4,10.7,93,0.00,,---,0.12,VWS V14.01,2013-05-24 01:05:00,
2013-05-23 21:10:00,42.3,40.4,30.08,NNE,23,5.4,12.5,93,0.00,,---,0.12,VWS V14.01,2013-05-24 01:10:00,
2013-05-23 21:15:00,42.4,40.6,30.08,NNW,340,0.0,10.7,93,0.00,,---,0.12,VWS V14.01,2013-05-24 01:15:00,
2013-05-23 21:20:00,42.4,40.6,30.08,NW,317,0.0,14.3,93,0.00,,---,0.12,VWS V14.01,2013-05-24 01:20:00,
2013-05-23 21:25:00,42.4,40.6,30.11,NNW,347,0.0,15.2,93,0.00,,---,0.12,VWS V14.01,2013-05-24 01:25:00,
2013-05-23 21:30:00,42.6,40.7,30.11,North,354,17.4,17.4,93,0.00,,---,0.12,VWS V14.01,2013-05-24 01:30:00,
2013-05-23 21:35:00,42.6,40.7,30.11,NE,40,7.2,11.6,93,0.00,,---,0.12,VWS V14.01,2013-05-24 01:35:00,
2013-05-23 21:40:00,42.6,40.7,30.11,NW,324,6.3,6.3,93,0.00,,---,0.12,VWS V14.01,2013-05-24 01:40:00,
2013-05-23 21:45:00,42.6,40.7,30.11,North,11,16.6,17.4,93,0.00,,---,0.12,VWS V14.01,2013-05-24 01:45:00,
2013-05-23 21:50:00,42.6,40.7,30.11,North,356,0.0,9.8,93,0.00,,---,0.12,VWS V14.01,2013-05-24 01:50:00,
2013-05-23 21:56:00,42.6,40.5,30.11,WNW,287,16.1,16.1,92,0.00,,---,0.12,VWS V14.01,2013-05-24 01:56:00,
2013-05-23 22:01:00,42.6,40.5,30.11,North,360,11.6,11.6,92,0.00,,---,0.12,VWS V14.01,2013-05-24 02:01:00,
2013-05-23 22:06:00,42.8,40.4,30.11,North,356,0.0,6.3,91,0.00,,---,0.12,VWS V14.01,2013-05-24 02:06:00,
2013-05-23 22:11:00,43.0,40.2,30.11,NW,317,4.5,8.1,90,0.00,,---,0.12,VWS V14.01,2013-05-24 02:11:00,
2013-05-23 22:16:00,43.2,40.4,30.11,WNW,297,12.5,15.2,90,0.00,,---,0.12,VWS V14.01,2013-05-24 02:16:00,
2013-05-23 22:21:00,43.2,40.4,30.11,NNW,338,6.3,6.3,90,0.00,,---,0.12,VWS V14.01,2013-05-24 02:21:00,
2013-05-23 22:26:00,43.3,40.3,30.11,NNE,26,0.0,8.1,89,0.00,,---,0.12,VWS V14.01,2013-05-24 02:26:00,
2013-05-23 22:31:00,43.3,40.3,30.11,North,359,0.0,18.3,89,0.00,,---,0.12,VWS V14.01,2013-05-24 02:31:00,
2013-05-23 22:36:00,43.3,40.0,30.11,ENE,64,6.3,8.9,88,0.00,,---,0.12,VWS V14.01,2013-05-24 02:36:00,
2013-05-23 22:41:00,43.3,40.0,30.14,NW,322,8.1,12.5,88,0.00,,---,0.12,VWS V14.01,2013-05-24 02:41:00,
2013-05-23 22:46:00,43.3,40.0,30.14,NNW,332,0.0,7.2,88,0.00,,---,0.12,VWS V14.01,2013-05-24 02:46:00,
2013-05-23 22:52:00,43.3,40.0,30.14,WNW,301,10.7,16.6,88,0.00,,---,0.12,VWS V14.01,2013-05-24 02:52:00,
2013-05-23 22:56:00,43.3,39.7,30.14,NNW,336,15.2,20.1,87,0.00,,---,0.12,VWS V14.01,2013-05-24 02:56:00,
2013-05-23 23:02:00,43.5,39.9,30.14,NNW,341,7.2,7.2,87,0.00,,---,0.12,VWS V14.01,2013-05-24 03:02:00,
2013-05-23 23:07:00,43.5,39.9,30.14,NNE,18,6.3,7.2,87,0.00,,---,0.12,VWS V14.01,2013-05-24 03:07:00,
2013-05-23 23:12:00,43.3,39.7,30.14,NNW,333,5.4,5.4,87,0.00,,---,0.12,VWS V14.01,2013-05-24 03:12:00,
2013-05-23 23:17:00,43.2,39.6,30.14,North,9,0.0,0.0,87,0.00,,---,0.12,VWS V14.01,2013-05-24 03:17:00,
2013-05-23 23:22:00,43.0,39.1,30.14,NNW,338,8.1,15.2,86,0.00,,---,0.12,VWS V14.01,2013-05-24 03:22:00,
2013-05-23 23:27:00,43.0,39.1,30.14,North,350,7.2,8.1,86,0.00,,---,0.12,VWS V14.01,2013-05-24 03:27:00,
2013-05-23 23:32:00,42.8,38.9,30.14,NNW,343,4.5,6.3,86,0.00,,---,0.12,VWS V14.01,2013-05-24 03:32:00,
2013-05-23 23:37:00,42.8,38.9,30.14,NW,304,0.0,6.3,86,0.00,,---,0.12,VWS V14.01,2013-05-24 03:37:00,
2013-05-23 23:42:00,42.6,38.7,30.14,NNW,327,4.5,4.5,86,0.00,,---,0.12,VWS V14.01,2013-05-24 03:42:00,
2013-05-23 23:47:00,42.4,38.6,30.14,North,7,0.0,4.5,86,0.00,,---,0.12,VWS V14.01,2013-05-24 03:47:00,
2013-05-23 23:52:00,42.4,38.6,30.14,NW,321,0.0,5.4,86,0.00,,---,0.12,VWS V14.01,2013-05-24 03:52:00,
2013-05-23 23:57:00,42.3,38.4,30.14,NW,320,0.0,4.5,86,0.00,,---,0.12,VWS V14.01,2013-05-24 03:57:00,